BEIDOU IGSO-7 (C16)

Last updated on Oct. 23, 2020, 5:57 a.m. UTC

1 43539U 18057A   20296.84241632 -.00000141  00000-0  00000-0 0  9991
2 43539  55.0466 181.1020 0031165 215.0244  53.1563  1.00286774  8465
UTC
Height (km)
Latitude
Longitude
Inclination
Orbital Period
UTC large
Height (km)
Speed (km/s)
/
Latitude / Longitude
Inclination (degrees)
Orbital Period (minutes)
Azimuth
Elevation
Range (km)
Doppler Factor
iOS Compass Heading
iOS Angle

Next 30 passes for location: Hong Kong

Rise time Rise Azimuth (degrees) Set time Set Azimuth (degrees) Duration Max altitude (degrees)

No matching passes for this satellites